User: anonymous   Login
Location: *
(90.0000°N, 180.0000°W)
Time: 22:40:37
(UTC+02:00)
Language:

Cosmos 1825 - Orbit

View from above orbital plane
View from above orbital plane
View from above satellite
View from above satellite

Ground track
Ground track

The orbit data is extracted from the following two-line orbital elements,

1 17566U 87024A   17142.94690654 +.00001114 +00000-0 +52263-4 0  9993
2 17566 082.5032 315.1794 0002697 324.0164 036.0888 15.18640867649728
Epoch (UTC): 22 May 2017 22:43:32
Eccentricity: 0.0002697
inclination: 82.5032°
perigee height: 508 km
apogee height: 512 km
right ascension of ascending node: 315.1794°
argument of perigee: 324.0164°
revolutions per day: 15.18640867
mean anomaly at epoch: 36.0888°
orbit number at epoch: 64972

The dashed part of the orbit path shows where the satellite is in the earth's shadow,  

DLR